Location: Arclight Observatory
(36.5667°N, 87.3333°W)
Time: 10:34:36
(UTC-05:00)

Daily predictions for brighter satellites

Satellite Brightness Start Highest point End
(mag) Time Altitude Azimuth Time Altitude Azimuth Time Altitude Azimuth
Cosmos 1470 Rocket 4.1 19:55:15 10° N 19:59:26 39° E 20:03:36 10° SSE
ASTRO E2 3.5 19:55:57 10° WSW 19:59:42 38° S 20:03:27 10° ESE
Cosmos 1624 Rocket 4.4 19:54:54 10° S 19:59:43 40° ESE 20:04:33 10° NNE
OAO 3 Rocket 4.5 19:56:45 10° SSW 20:00:26 22° SSE 20:04:04 10° ESE
Cosmos 1825 3.3 19:59:26 10° NNE 20:02:38 25° ENE 20:05:48 10° SE
Meteor 1-27 4.3 19:57:44 10° S 20:03:27 84° E 20:09:07 10° N
CZ-4C R/B 3.4 20:00:56 10° SSE 20:04:06 17° ESE 20:07:28 10° ENE
Cosmos 1151 Rocket 3.1 20:02:16 10° S 20:06:25 54° E 20:10:36 10° NNE
Cosmos 1939 Rocket 3.6 20:06:32 10° SE 20:10:00 32° ENE 20:13:32 10° N
Cosmos 1408 3.2 20:07:52 10° N 20:11:20 37° E 20:14:47 10° SSE
Cosmos 2098 Rocket 3.8 20:08:52 10° SSE 20:12:32 26° E 20:15:37 10° NE
ATLAS CENTAUR R/B 4.3 20:13:01 10° W 20:15:20 16° NW 20:17:43 10° N
OAO 3 Copernicus 4.3 20:10:46 10° WSW 20:15:47 71° S 20:20:47 10° E
Hubble Space Telescope 2.7 20:16:28 10° SSW 20:18:48 15° SSE 20:20:37 12° SE
Sich 1 4.5 20:14:52 10° NNW 20:18:52 40° W 20:22:52 10° SSW
Thor Agena Rocket 3.6 20:20:41 10° NNE 20:25:59 82° ESE 20:31:16 10° SSW
Resurs 01 Rocket 2.0 20:22:18 10° SE 20:26:33 46° ENE 20:30:48 10° N
Cosmos 1933 Rocket 3.5 20:23:11 10° N 20:27:32 69° E 20:31:50 10° SSE
Lacrosse 5 4.2 20:25:57 10° N 20:27:35 11° NNE 20:29:12 10° NE
YAOGAN 6 2.6 20:24:16 10° SSE 20:27:49 60° ENE 20:31:27 10° N
SL-16 R/B 2.1 20:29:25 10° S 20:35:02 69° ESE 20:40:39 10° NNE
ERS-2 2.2 20:32:09 10° S 20:35:47 78° WSW 20:39:29 10° NNW
Cosmos 1727 Rocket 4.4 20:31:54 10° N 20:37:43 42° ENE 20:42:29 15° SE
Resurs 1-3 3.5 20:43:06 11° SSE 20:47:20 85° E 20:51:45 10° N
Cosmos 1862 4.3 20:43:55 10° NNE 20:47:28 29° ENE 20:48:34 25° ESE
Cosmos 407 Rocket 3.5 20:42:47 10° N 20:47:51 59° ENE 20:51:12 21° SE
Cosmos 1869 Rocket 4.2 20:47:01 10° NNE 20:51:01 35° ENE 20:52:31 27° ESE
Cosmos 2218 Rocket 4.2 20:48:07 10° S 20:54:28 81° W 21:00:55 10° N
Cosmos 2344 3.5 20:49:56 10° SSW 20:57:27 60° ESE 21:05:17 10° NE
Cosmos 2366 rocket 4.1 20:52:32 10° S 20:58:45 83° W 21:05:06 10° N
SJ-11-01 4.3 20:57:21 15° S 21:01:10 84° WSW 21:05:52 10° NNW
USA 186 3.4 21:00:49 12° SW 21:02:19 21° W 21:04:13 10° NW
Cosmos 1603 4.2 20:59:43 20° SSE 21:02:51 35° ESE 21:07:55 10° NE
Cosmos 2369 Rocket 3.9 21:05:54 10° NNE 21:09:32 17° NE 21:10:58 16° ENE
Cosmos 1441 Rocket 3.1 21:07:22 16° S 21:10:13 85° WNW 21:14:00 10° N
Cosmos 2297 3.7 21:07:28 10° NNW 21:13:11 89° ENE 21:16:16 29° SSE
Cosmos 676 Rocket 4.0 21:09:04 10° N 21:14:16 63° ENE 21:16:11 37° SE
Cosmos 1339 Rocket 4.5 21:08:29 10° N 21:14:38 83° W 21:19:45 16° S
SL-08 RB Rocket 4.4 21:19:22 34° ENE 21:19:36 34° ENE 21:23:39 10° N
Gblst 52 Del rocket 4.2 21:13:58 10° SW 21:19:40 76° NW 21:25:09 10° NE
ATLAS 5 CENTAUR R/B 4.0 21:15:15 10° N 21:19:48 22° NE 21:22:08 18° ENE
USA 81 3.9 21:14:42 10° N 21:19:59 81° E 21:22:37 30° S
H-2A R/B 2.5 21:21:21 37° E 21:22:07 39° ENE 21:26:41 10° N
Cosmos 1452 Rocket 3.5 21:20:49 10° SSW 21:26:03 85° WNW 21:31:20 10° NNE
Terra 4.1 21:27:36 11° NE 21:27:36 11° NE 21:28:17 10° NE
Cosmos 1140 Rocket 3.4 21:23:01 10° NNW 21:28:11 71° ENE 21:29:27 50° SE
BREEZE-M DEB (TANK) 3.5 21:26:26 10° WNW 21:28:28 31° W 21:28:28 31° W
Cosmos 2278 Rocket 4.5 21:34:21 10° NW 21:38:15 19° W 21:42:08 10° SW
ASTRO E2 4.1 21:36:16 10° WSW 21:38:44 27° SW 21:38:44 27° SW
Cosmos 1933 3.3 21:39:29 69° SW 21:39:53 78° W 21:43:58 10° N
Cosmos 921 Rocket 4.0 21:43:47 34° NE 21:43:47 34° NE 21:46:23 10° NNE
Cosmos 1934 Rocket 4.0 21:41:52 49° ESE 21:42:30 51° E 21:48:20 10° NNE
OAO 3 Rocket 3.5 21:38:51 10° WSW 21:42:38 48° SSW 21:42:38 48° SSW
Cosmos 2242 Rocket 4.5 21:46:07 36° NE 21:46:07 36° NE 21:49:02 10° NNE
Cosmos 1850 Rocket 4.4 21:40:55 10° N 21:45:52 45° ENE 21:45:52 45° ENE
Cosmos 405 Rocket 4.5 21:43:26 13° SW 21:46:22 31° WNW 21:49:56 10° NNW
MetOp-B 4.0 21:47:10 62° SSE 21:48:05 82° ENE 21:53:28 10° N
CZ-4C R/B 2.8 21:46:53 10° SW 21:51:51 54° NW 21:57:31 10° NNE
Cosmos 1954 Rocket 4.2 21:49:30 10° NNW 21:54:38 62° WSW 21:55:34 52° SSW
Cosmos 1174 4.1 21:54:42 89° ESE 21:54:42 89° ESE 21:59:04 10° NNE
Helios 1A 4.0 21:56:13 38° NNE 21:56:13 38° NNE 21:59:06 10° N
ARGOS 3.2 21:55:18 55° SSW 21:56:25 73° WSW 22:01:47 10° NNW
Cosmos 1741 Rocket 4.2 21:51:38 10° N 21:56:41 55° ENE 21:56:41 55° ENE
ATLAS 2A CENTAUR R/B 3.9 21:39:46 10° WSW 21:59:43 54° S 22:03:01 43° SE
Cosmos 1943 Rocket 3.2 21:58:15 10° N 22:02:48 31° NE 22:02:48 31° NE
Resurs 01 Rocket 4.3 22:00:59 10° WSW 22:03:14 14° W 22:05:29 10° WNW
Meteor 1-26 Rocket 4.1 22:06:02 74° SSW 22:06:34 86° W 22:12:10 10° N
Cosmos 1437 Rocket 4.1 22:04:51 10° N 22:07:20 38° N 22:07:20 38° N
ERS-1 Rocket 3.0 22:09:44 77° W 22:09:44 77° W 22:14:39 10° NNW
SPOT 5 3.6 22:12:29 42° NNE 22:12:29 42° NNE 22:15:32 10° N
Lacrosse 5 2.7 22:06:56 10° NNW 22:11:23 42° NNE 22:11:23 42° NNE
Meteor 1-20 Rocket 4.5 22:09:16 10° N 22:13:54 55° NE 22:13:54 55° NE
Cosmos 2123 Rocket 4.1 22:34:32 10° NNW 22:40:42 70° W 22:40:42 70° W
RESURS DK-1 4.5 22:37:28 10° NNW 22:39:18 25° NNW 22:39:18 25° NNW
Cosmos 1943 3.8 22:44:56 53° WNW 22:45:03 53° WNW 22:50:37 10° NNE
CZ-2C R/B 4.5 22:45:59 10° NNE 22:47:57 22° NE 22:47:57 22° NE
Cosmos 2369 Rocket 2.9 22:48:25 10° NNW 22:52:46 51° NW 22:52:46 51° NW
H-2A R/B 4.0 23:01:59 20° W 23:01:59 20° W 23:05:16 10° NW
Terra 3.6 23:06:29 30° NNW 23:06:29 30° NNW 23:08:53 10° NNW
ATLAS 5 CENTAUR R/B 2.9 22:58:53 10° NW 23:03:41 56° NW 23:03:41 56° NW
Cosmos 1943 Rocket 4.2 23:41:59 10° NW 23:44:20 22° WNW 23:44:20 22° WNW
USA 267 3.9 23:44:25 10° NE 23:50:23 50° NNW 23:50:23 50° NNW
